Temperature
16 16 16 17 17 16 15 14 14 15 15 15 15 15 15 16 16 16 16 16 16 16 16 16 16 16 16 15 15 15 15 15 14 14 14 14 14 14 14 13 13 13 13 13
16 16 16 16 16 16 16 15 15 15 15 15 15 15 15 16 16 16 16 16 16 16 16 16 16 16 15 15 15 15 15 14 14 14 14 14 14 13 13 13 13 13 13 12
14 15 16 15 16 16 16 15 15 15 15 15 14 14 15 16 16 16 16 16 16 16 16 16 16 16 15 15 15 15 14 14 14 14 14 13 13 13 13 13 13 13 13 12
13 15 16 15 16 16 16 15 15 15 14 14 15 15 16 16 16 16 16 16 16 16 16 16 16 15 15 15 14 14 14 14 13 13 13 13 13 13 13 12 12 12 12 12
12 14 14 15 16 15 15 16 15 14 14 15 15 15 15 16 16 16 16 16 16 16 16 16 15 15 15 14 14 14 14 14 13 13 13 13 13 13 12 12 12 12 12 12
12 14 14 15 16 16 16 15 15 15 14 14 14 13 14 16 16 16 16 16 16 16 15 15 15 14 14 14 14 14 13 13 13 13 13 12 12 12 12 12 12 12 12 11
11 13 13 14 15 16 15 15 15 15 15 14 14 14 16 16 16 16 16 16 15 15 15 15 14 14 14 14 14 13 13 13 13 12 12 12 12 12 12 11 11 11 11 11
10 12 13 14 14 14 14 16 16 16 16 15 15 15 15 16 16 16 16 15 15 15 15 14 14 14 14 14 13 13 13 13 12 12 12 12 12 11 11 11 11 11 11 11
11 12 14 14 14 15 15 15 15 15 16 15 15 15 15 15 15 15 15 15 15 14 14 14 14 13 13 13 13 13 12 12 12 12 12 11 11 11 11 11 11 11 11 11
10 11 13 14 15 15 15 15 15 15 15 15 15 15 14 14 15 15 15 14 14 14 14 13 13 13 13 13 12 12 12 12 12 12 11 11 11 11 11 11 10 10 10 10
10 11 13 14 14 15 15 15 15 15 15 15 14 14 14 14 14 14 14 14 13 13 13 13 13 13 12 12 12 12 12 12 11 11 11 11 11 10 10 10 10 10 10 10
11 12 12 13 14 14 14 14 14 14 14 14 14 13 14 14 13 13 13 13 13 13 12 12 12 12 12 12 12 12 11 11 11 11 11 10 10 10 10 10 9 9 9 9
13 13 13 13 13 13 13 13 13 13 13 13 13 13 13 13 13 13 13 13 12 12 12 12 12 12 12 11 11 11 11 11 10 10 10 10 10 10 9 9 9 9 9 9
13 13 12 13 13 13 13 13 13 13 13 13 13 13 13 13 13 12 12 12 12 12 12 11 11 11 11 11 11 11 10 10 10 10 10 9 9 9 9 9 9 9 9 9
12 12 12 12 12 12 12 12 12 12 12 12 12 12 12 12 12 12 12 12 12 11 11 11 11 11 11 10 10 10 10 10 9 9 9 9 9 9 9 8 8 8 8 8
12 12 12 11 11 11 12 12 12 12 12 12 12 12 12 12 11 12 11 11 11 11 11 11 11 11 10 10 10 10 9 9 9 9 9 9 8 8 8 8 8 8 8 8
11 11 11 11 11 11 11 11 11 11 11 11 11 11 11 11 11 11 11 11 11 11 10 10 10 10 10 10 9 9 9 9 9 8 8 8 8 8 8 8 8 7 7 7
10 10 11 10 10 11 11 11 11 11 11 11 11 11 11 11 11 11 11 10 10 10 10 10 10 9 9 9 9 9 9 8 8 8 8 8 8 7 7 7 7 7 7 7
10 10 10 10 10 10 10 10 10 10 10 10 10 10 10 10 10 10 10 10 10 9 9 9 9 9 9 9 9 8 8 8 8 8 8 7 7 7 7 7 7 7 6 6
10 10 10 10 9 9 9 9 9 10 10 10 10 10 10 10 10 10 9 10 9 9 9 9 9 8 8 8 8 8 8 8 7 7 7 7 7 7 7 6 6 6 6 6
9 9 9 9 9 9 9 9 9 9 9 9 9 9 9 9 9 9 9 9 9 8 8 8 8 8 8 8 8 7 7 7 7 7 7 6 6 6 6 6 6 6 6 6
8 8 8 8 8 8 8 8 8 8 8 8 8 8 8 8 8 8 8 8 8 8 8 8 7 7 7 7 7 7 7 7 6 6 6 6 6 6 6 6 5 5 5 5
7 7 7 7 7 7 7 7 7 7 7 7 7 7 7 7 7 7 8 8 7 7 7 7 7 7 7 7 7 6 6 6 6 6 6 6 5 5 5 5 5 5 5 5
7 7 7 7 7 7 7 7 7 6 7 7 7 7 7 7 7 7 7 7 7 7 7 7 7 6 6 6 6 6 6 6 6 5 5 5 5 5 5 5 5 5 4 4
6 6 6 6 6 6 6 6 6 6 6 6 6 6 6 6 6 6 6 6 6 6 6 6 6 6 6 6 6 5 5 5 5 5 5 5 5 5 4 4 4 4 4 4
5 5 5 5 5 5 5 5 5 5 5 5 5 5 5 5 6 6 6 6 6 5 5 5 5 5 5 5 5 5 5 5 5 5 5 4 4 4 4 4 4 4 4 4
5 5 5 5 5 5 5 5 5 5 5 5 5 5 5 5 5 5 5 5 5 5 5 5 5 5 5 5 5 4 4 4 4 4 4 4 4 4 4 3 3 3 3 3
Wind_Speed
5 4 3 4 5 5 7 7 7 7 7 8 6 5 4 3 1 1 0 1 2 3 3 4 4 4 4 4 3 4 4 4 3 3 2 2 2 2 2 3 3 3 3 2
2 2 3 4 6 6 6 5 6 5 7 6 4 1 1 2 2 2 2 2 2 2 3 4 4 4 4 4 4 4 4 4 3 2 2 2 2 2 2 2 2 2 3 3
3 4 3 4 5 5 4 4 5 6 7 4 2 2 3 4 4 4 4 3 3 3 4 4 4 5 5 4 4 4 4 3 2 3 2 2 2 3 3 3 3 3 3 3
1 2 4 6 3 4 4 4 5 5 5 4 4 3 2 3 4 5 4 4 4 3 3 3 2 3 3 3 4 4 3 3 3 3 3 2 2 3 3 3 3 3 4 4
3 2 6 7 3 3 4 4 3 4 4 2 1 3 3 3 4 5 5 4 4 4 3 3 3 3 4 3 3 3 3 3 3 4 4 3 3 3 3 3 3 4 4 4
4 3 6 6 3 1 3 4 3 3 3 1 3 1 5 3 3 3 3 2 2 2 2 2 3 4 4 3 3 4 4 4 3 3 4 4 4 3 3 3 4 4 4 4
4 5 7 6 4 3 3 6 3 3 3 3 4 5 4 2 2 3 3 2 2 3 3 4 3 5 4 3 5 6 4 3 3 3 4 4 3 3 3 3 3 3 4 4
4 4 7 3 3 4 6 3 2 2 2 3 4 4 3 3 3 2 2 2 3 3 3 3 4 5 4 5 6 4 3 3 3 3 3 3 3 2 2 3 3 4 4 4
7 7 4 2 3 3 2 2 3 2 2 3 3 4 4 4 3 3 3 2 2 3 3 2 3 5 6 6 4 4 4 4 4 3 3 3 3 3 3 3 4 4 4 4
3 6 5 4 3 3 2 3 3 3 3 3 4 5 5 4 4 3 3 3 3 3 3 3 3 4 6 4 4 4 4 4 3 3 3 3 3 4 4 4 4 4 4 5
4 6 5 4 4 4 3 3 3 3 3 3 4 5 5 5 5 4 4 3 3 4 5 5 4 4 4 5 5 5 5 4 4 4 4 3 3 3 4 5 5 5 5 5
7 7 5 7 6 5 4 4 4 4 5 4 4 5 6 5 5 4 4 3 3 4 5 4 4 4 4 4 5 6 5 4 4 3 3 3 3 2 3 4 5 6 5 5
7 6 5 7 6 4 5 5 5 5 5 6 5 5 5 5 5 4 4 4 5 6 6 5 4 4 4 4 5 5 5 5 4 3 3 3 3 3 3 3 4 5 6 6
6 4 5 5 6 6 5 6 5 5 5 5 5 5 4 4 4 4 5 5 5 5 5 4 4 5 5 4 5 5 5 5 4 4 4 4 4 4 4 3 3 4 5 7
6 5 6 6 5 5 5 4 4 5 6 5 4 4 4 4 5 5 5 4 3 4 4 4 4 5 4 4 5 5 4 4 4 3 3 3 3 3 3 4 4 4 3 4
5 4 4 4 5 6 5 4 5 6 6 6 5 5 5 4 4 4 4 3 3 5 5 5 6 6 4 5 5 4 4 6 5 3 3 3 3 3 4 4 4 4 4 4
3 4 5 5 6 6 5 5 5 6 6 6 6 5 4 3 3 4 4 4 4 5 5 5 6 5 4 5 5 4 4 4 6 4 4 4 4 4 4 4 4 5 5 5
5 6 6 5 5 5 5 5 4 5 5 6 5 4 3 3 4 5 5 3 2 3 4 4 4 3 4 5 5 4 4 4 4 4 4 4 4 4 4 5 5 5 5 4
3 4 4 4 4 4 4 5 5 5 5 3 3 3 4 4 4 4 3 2 3 4 5 4 4 3 4 5 4 4 4 4 4 4 4 5 5 4 4 5 5 5 5 4
2 2 2 3 3 3 4 4 4 4 4 3 3 3 4 4 4 3 3 3 5 5 4 3 3 3 3 4 5 3 4 4 5 4 4 4 5 5 5 5 5 5 5 5
3 3 3 3 4 4 4 4 4 4 4 3 3 4 4 4 3 2 2 4 4 3 3 3 2 2 3 3 4 3 3 4 4 4 5 5 5 5 5 5 5 5 5 5
3 3 4 4 4 4 5 4 3 4 4 4 3 3 3 3 3 2 3 4 4 3 2 2 2 3 4 3 2 3 3 4 4 4 4 4 5 5 5 5 5 5 5 5
3 3 4 4 4 4 4 4 4 4 4 4 3 3 2 3 2 2 3 3 3 3 2 2 4 4 4 2 2 3 4 4 4 4 4 4 4 4 5 5 5 5 4 4
4 4 4 4 3 3 4 5 4 4 4 4 3 3 2 2 3 3 3 3 3 3 2 3 4 4 3 1 2 3 3 4 4 4 4 4 4 4 4 4 4 4 4 5
4 4 4 4 3 3 4 4 4 4 4 3 4 4 3 2 3 3 3 2 3 3 2 3 4 3 2 2 2 3 3 4 4 3 3 4 4 4 4 4 4 4 4 5
4 3 3 4 4 4 3 3 3 3 3 3 3 3 3 3 2 2 2 2 3 3 2 2 2 2 2 2 2 3 3 4 4 4 4 4 4 4 4 4 5 4 5 5
4 3 3 4 3 3 3 3 3 3 3 3 3 3 3 2 2 2 3 2 2 2 2 2 2 2 2 2 2 2 3 3 3 3 3 4 4 4 4 5 4 4 4 4
Wind_Direction
240 244 219 232 234 199 199 201 206 237 240 264 270 256 249 237 208 149 163 212 209 201 198 195 187 187 185 184 174 167 160 166 187 189 184 182 175 173 164 164 174 173 167 174
302 291 242 255 254 228 219 212 222 245 263 265 277 263 233 223 195 196 219 225 223 209 199 201 201 198 191 191 184 167 173 193 188 165 167 180 187 172 160 168 171 161 175 184
268 311 6 281 249 212 208 207 192 221 244 267 284 250 227 222 207 209 220 217 207 211 212 215 209 194 194 197 179 172 180 188 186 174 175 195 194 169 180 188 179 183 196 197
202 28 245 243 258 188 193 234 220 230 252 251 240 254 250 210 199 219 222 213 215 215 213 208 187 181 173 160 168 175 182 189 190 186 195 198 189 196 199 196 193 206 213 213
140 225 277 291 262 175 183 259 237 226 266 287 59 23 323 240 209 218 222 218 211 205 202 180 173 164 140 147 160 164 184 199 200 193 196 195 202 216 214 199 210 218 220 216
140 187 242 257 285 214 128 275 275 207 225 203 100 6 277 274 229 236 238 223 205 183 159 166 181 152 145 171 175 200 211 212 200 189 193 203 213 218 220 203 217 220 227 225
171 216 259 267 294 100 153 251 269 212 217 180 197 227 256 278 245 227 224 219 187 165 175 195 177 156 169 195 213 219 211 201 202 202 208 213 212 211 213 212 212 223 232 236
161 199 253 278 125 168 223 261 253 230 225 204 229 259 278 278 261 238 222 211 187 181 205 199 172 168 190 222 227 209 189 194 210 214 219 215 200 213 212 203 211 228 235 245
191 212 245 255 216 249 230 251 266 249 250 224 247 268 274 277 269 256 235 223 203 196 213 214 191 185 206 235 214 185 189 208 219 217 219 208 200 206 215 211 214 227 229 239
241 266 271 278 284 295 266 257 270 258 254 234 252 270 276 277 270 262 253 232 211 193 214 233 221 212 221 229 196 181 197 215 216 210 221 219 217 212 209 216 220 225 231 238
250 275 302 297 279 283 301 312 310 307 283 260 254 271 270 271 265 255 255 246 214 211 220 231 228 228 228 213 189 190 201 210 213 212 211 217 222 223 218 222 217 220 231 230
237 241 233 264 276 283 291 297 296 296 302 297 265 263 266 261 260 255 248 238 228 228 227 233 230 238 238 213 190 188 202 210 211 212 213 211 219 253 251 237 242 238 240 236
240 253 243 265 282 274 269 275 281 278 273 280 277 264 259 261 261 256 249 236 228 227 227 228 227 235 236 213 197 197 205 209 207 207 207 211 216 220 252 279 263 253 255 256
249 250 266 267 273 278 274 278 284 287 280 270 270 267 259 260 261 252 247 243 236 230 228 223 222 236 234 206 192 196 202 209 207 207 209 212 216 221 224 235 258 268 261 256
261 242 246 269 284 287 282 281 290 291 289 291 281 266 254 248 250 252 252 246 235 233 234 226 225 239 229 197 191 196 200 206 208 208 209 214 216 218 224 232 240 254 274 271
273 266 256 269 276 280 284 282 277 279 283 284 281 271 260 251 253 259 257 236 224 235 238 229 232 236 215 196 194 201 207 211 207 204 206 211 216 221 226 230 237 244 250 253
259 274 276 280 277 277 276 272 267 269 276 278 279 277 271 266 270 272 266 242 231 237 236 230 235 234 214 200 197 205 209 214 214 215 213 216 219 224 229 230 235 243 247 247
235 244 248 251 260 271 285 287 283 279 276 276 282 285 274 257 255 262 264 257 258 271 260 240 231 223 211 205 201 202 205 209 209 213 218 221 225 226 229 232 236 242 252 252
253 252 258 261 260 264 273 283 288 286 283 281 280 274 268 263 256 256 254 234 238 255 264 250 237 217 217 217 211 203 205 211 217 221 221 226 230 230 231 233 239 243 246 248
306 292 287 295 306 301 293 295 297 298 295 287 280 282 285 280 261 251 241 241 244 245 248 246 234 223 224 221 219 210 210 214 220 225 225 224 228 233 234 235 238 242 246 249
327 324 325 323 318 316 310 306 306 305 308 305 285 276 278 284 274 244 237 265 275 264 248 248 239 233 230 228 219 208 211 218 222 225 227 230 234 237 237 237 238 242 244 250
321 323 321 321 320 318 319 318 315 315 322 326 318 307 303 301 296 285 257 250 267 273 261 243 242 242 242 239 214 212 218 223 227 228 229 232 234 236 239 240 240 243 244 248
312 311 310 308 304 308 322 328 324 319 317 315 310 302 288 285 284 276 288 280 267 269 275 255 260 261 259 239 222 223 227 230 233 234 234 233 232 233 238 241 242 246 248 253
314 313 311 311 322 331 323 319 318 312 305 299 294 288 278 291 304 293 280 285 291 291 283 274 281 278 274 245 230 230 233 235 236 237 235 235 235 234 237 240 245 248 251 259
308 311 318 323 318 305 301 311 321 319 317 315 313 312 303 280 275 290 297 283 282 295 288 281 292 294 283 250 242 241 240 240 240 234 232 236 239 239 238 238 241 248 255 260
299 295 290 286 285 289 297 301 300 302 306 309 313 312 315 318 311 307 304 295 286 286 288 282 281 289 280 262 252 249 249 253 252 246 239 239 241 241 241 242 243 246 253 256
300 299 301 308 307 299 298 295 291 291 288 283 295 303 306 313 318 321 313 306 304 297 291 286 279 275 278 276 267 263 259 252 246 246 243 240 241 243 244 246 250 252 250 254
Height
1530 1527 1527 1527 1527 1529 1532 1535 1539 1533 1529 1523 1519 1518 1516 1516 1516 1517 1517 1518 1519 1519 1520 1522 1523 1525 1526 1528 1529 1530 1531 1532 1532 1533 1534 1534 1535 1535 1536 1537 1537 1538 1539 1539
1530 1526 1526 1526 1524 1524 1526 1527 1529 1527 1525 1517 1516 1515 1515 1515 1515 1515 1516 1516 1517 1518 1519 1520 1521 1523 1524 1526 1527 1528 1529 1530 1530 1531 1531 1532 1532 1533 1533 1534 1535 1536 1536 1536
1536 1530 1527 1531 1522 1521 1522 1521 1522 1525 1521 1515 1515 1514 1513 1513 1514 1514 1514 1515 1515 1516 1517 1518 1519 1520 1522 1523 1525 1526 1527 1527 1528 1528 1529 1529 1530 1530 1531 1531 1532 1533 1533 1534
1538 1533 1537 1526 1515 1515 1517 1517 1517 1516 1515 1513 1513 1512 1512 1512 1512 1512 1513 1513 1514 1514 1515 1516 1517 1518 1519 1521 1522 1523 1524 1525 1525 1526 1526 1527 1527 1527 1528 1529 1529 1530 1530 1531
1541 1539 1534 1522 1514 1514 1516 1516 1513 1513 1512 1512 1511 1511 1511 1511 1511 1511 1511 1512 1512 1513 1513 1514 1514 1516 1517 1518 1519 1520 1521 1521 1522 1522 1523 1523 1524 1524 1524 1525 1526 1526 1527 1527
1540 1538 1538 1522 1512 1510 1514 1518 1511 1510 1510 1510 1511 1514 1511 1509 1509 1509 1509 1510 1511 1511 1511 1512 1512 1513 1514 1515 1516 1516 1517 1518 1519 1519 1519 1520 1520 1520 1521 1521 1522 1522 1522 1523
1538 1538 1529 1515 1511 1511 1523 1519 1510 1509 1508 1509 1509 1510 1508 1507 1507 1507 1507 1507 1508 1508 1509 1509 1510 1511 1511 1512 1512 1514 1514 1515 1515 1515 1516 1516 1517 1517 1517 1517 1518 1518 1518 1519
1537 1537 1530 1511 1511 1514 1514 1508 1507 1507 1507 1507 1506 1506 1505 1505 1504 1504 1504 1504 1505 1505 1505 1506 1507 1507 1507 1508 1509 1510 1511 1511 1511 1512 1512 1512 1513 1513 1513 1513 1513 1513 1513 1514
1524 1522 1512 1510 1509 1509 1508 1507 1506 1505 1505 1505 1504 1504 1503 1502 1502 1502 1501 1501 1501 1501 1502 1502 1503 1504 1504 1504 1505 1506 1506 1506 1507 1507 1508 1508 1508 1508 1508 1508 1508 1508 1508 1508
1518 1512 1509 1508 1507 1507 1506 1506 1505 1504 1503 1503 1502 1501 1501 1500 1499 1499 1498 1498 1498 1498 1498 1498 1499 1500 1500 1501 1501 1501 1502 1502 1502 1503 1503 1503 1504 1503 1503 1503 1503 1503 1503 1503
1514 1510 1507 1505 1505 1505 1504 1503 1502 1501 1500 1500 1499 1498 1497 1496 1496 1495 1495 1494 1494 1494 1494 1494 1495 1495 1495 1496 1496 1497 1497 1497 1497 1498 1498 1498 1498 1498 1498 1498 1498 1498 1498 1498
1510 1505 1505 1503 1502 1502 1501 1500 1499 1498 1496 1496 1495 1494 1493 1492 1491 1491 1490 1490 1489 1489 1489 1490 1490 1490 1491 1491 1492 1492 1492 1492 1492 1493 1493 1493 1493 1493 1493 1494 1494 1494 1494 1493
1503 1502 1501 1500 1499 1498 1497 1496 1495 1494 1493 1492 1491 1490 1489 1488 1487 1486 1485 1485 1485 1484 1484 1485 1485 1485 1486 1487 1487 1487 1487 1487 1487 1487 1488 1488 1488 1488 1488 1488 1489 1488 1488 1488
1499 1499 1497 1496 1495 1494 1493 1492 1492 1490 1489 1488 1487 1486 1485 1483 1482 1482 1481 1481 1480 1480 1480 1480 1480 1481 1481 1482 1482 1482 1482 1482 1482 1482 1483 1483 1483 1483 1483 1483 1482 1482 1483 1483
1495 1495 1493 1492 1491 1490 1489 1488 1487 1486 1485 1484 1483 1481 1480 1479 1478 1477 1477 1476 1476 1476 1475 1475 1475 1476 1477 1477 1477 1477 1477 1477 1478 1478 1478 1478 1478 1478 1478 1478 1477 1477 1477 1477
1490 1490 1489 1488 1487 1486 1485 1484 1483 1482 1481 1479 1478 1477 1476 1475 1473 1473 1472 1472 1471 1470 1470 1470 1470 1471 1472 1473 1473 1473 1473 1473 1473 1473 1473 1473 1473 1473 1472 1472 1471 1471 1471 1471
1487 1486 1485 1484 1483 1482 1481 1480 1479 1478 1476 1475 1474 1473 1471 1470 1469 1468 1468 1467 1467 1466 1466 1466 1466 1467 1467 1468 1468 1468 1468 1468 1468 1468 1468 1468 1467 1467 1467 1467 1466 1466 1465 1466
1484 1483 1482 1481 1479 1478 1477 1476 1475 1474 1472 1471 1470 1468 1467 1465 1464 1463 1463 1463 1462 1461 1461 1462 1462 1462 1463 1463 1463 1463 1463 1463 1463 1463 1462 1462 1462 1462 1462 1461 1461 1461 1460 1461
1479 1479 1478 1477 1476 1475 1473 1472 1471 1470 1468 1467 1465 1464 1463 1462 1461 1460 1459 1458 1458 1457 1457 1458 1458 1458 1458 1458 1458 1458 1458 1458 1458 1458 1458 1458 1457 1457 1457 1456 1456 1455 1455 1455
1475 1475 1475 1474 1473 1471 1470 1469 1467 1466 1464 1463 1462 1460 1459 1458 1457 1456 1455 1454 1454 1453 1454 1454 1454 1453 1453 1454 1454 1453 1453 1453 1453 1453 1453 1452 1452 1452 1451 1451 1451 1450 1450 1450
1473 1472 1471 1470 1469 1468 1467 1465 1464 1462 1460 1459 1458 1456 1455 1454 1453 1452 1451 1450 1450 1450 1450 1450 1450 1449 1449 1449 1449 1448 1448 1448 1448 1448 1447 1447 1447 1446 1446 1446 1445 1445 1445 1445
1471 1470 1469 1467 1466 1464 1463 1462 1460 1458 1457 1455 1454 1452 1451 1450 1449 1448 1447 1447 1446 1446 1446 1446 1445 1445 1445 1444 1444 1444 1443 1443 1443 1443 1442 1442 1442 1441 1441 1441 1440 1440 1440 1439
1469 1467 1466 1465 1463 1461 1460 1458 1457 1455 1453 1452 1450 1449 1448 1446 1445 1445 1444 1443 1443 1443 1442 1442 1442 1441 1441 1440 1439 1439 1439 1438 1438 1438 1437 1437 1437 1436 1436 1435 1435 1435 1434 1434
1466 1465 1463 1462 1460 1458 1456 1455 1454 1452 1451 1449 1448 1447 1445 1444 1442 1442 1441 1440 1440 1439 1439 1438 1438 1437 1436 1435 1435 1434 1434 1433 1433 1433 1432 1432 1432 1431 1431 1430 1430 1429 1429 1428
1463 1462 1460 1458 1457 1455 1453 1452 1450 1449 1447 1446 1444 1444 1442 1441 1440 1439 1438 1437 1436 1436 1435 1434 1433 1433 1432 1431 1430 1430 1429 1429 1428 1428 1427 1427 1426 1426 1425 1425 1424 1424 1423 1423
1460 1459 1457 1456 1454 1452 1450 1449 1447 1445 1444 1442 1441 1440 1439 1438 1437 1436 1435 1434 1433 1432 1431 1430 1429 1428 1427 1426 1426 1425 1424 1423 1423 1422 1422 1422 1421 1421 1420 1419 1419 1418 1418 1417
1457 1455 1454 1452 1451 1449 1447 1446 1444 1442 1441 1439 1438 1436 1435 1434 1433 1432 1431 1430 1429 1428 1427 1426 1425 1424 1423 1422 1421 1420 1420 1419 1418 1418 1417 1417 1416 1416 1415 1414 1413 1413 1412 1412